Weather History for San Luis Obispo, CA

Change the Weather History Date:

Wednesday, October 9, 2013

  Actual Average Record
Temperature  
Mean Temperature 56 °F -  
Max Temperature 63 °F 79 °F 99 °F (1999)
Min Temperature 48 °F 49 °F 39 °F (1949)
Degree Days  
Heating Degree Days 8    
Growing Degree Days 6 (Base 50)    
Moisture  
Dew Point 47 °F    
Average Humidity 72    
Maximum Humidity 86    
Minimum Humidity 48    
Precipitation  
Precipitation 0.00 in - - ()
Sea Level Pressure  
Sea Level Pressure 29.75 in    
Wind  
Wind Speed 5 mph (WSW)    
Max Wind Speed 15 mph    
Max Gust Speed 61 mph    
Visibility 9 miles    
Events Rain    
Averages and records for this station are not official NWS values.
T = Trace of Precipitation, MM = Missing Value Source: NWS Daily Summary

Daily Weather History Graph

Daily Weather History Graph

Search for Another Location

Airport:

Trip Planner

Search our weather history database for the weather conditions in past years. The results will help you decide how hot, cold, wet, or windy it might be!

Date:

Astronomy

Oct. 09, 2013 Rise Set
Actual Time 7:04 AM PDT 6:34 PM PDT
Civil Twilight 6:38 AM PDT 7:00 PM PDT
Nautical Twilight 6:09 AM PDT 7:29 PM PDT
Astronomical Twilight 5:39 AM PDT 7:59 PM PDT
Moon 11:55 AM PDT (10/9) 10:23 PM PDT (10/9)
Length of Visible Light 12h 21m
Length of Day
11h 30m
Waxing Crescent, 26% of the Moon is Illuminated
Oct 9
Waxing Crescent
Oct 11
First Quarter
Oct 18
Full
Oct 26
Last Quarter
Nov 3
New

Hourly Weather History & Observations

Time (PDT) Temp. Dew Point Humidity Pressure Visibility Wind Dir Wind Speed Gust Speed Precip Events Conditions
12:56 AM 55.9 °F 48.0 °F 75% 29.81 in 10.0 mi North - - N/A   Overcast
1:08 AM 55.4 °F 46.4 °F 72% 29.81 in 10.0 mi SSE 4.6 mph 61.0 mph N/A   Overcast
1:32 AM 55.4 °F 46.4 °F 72% 29.81 in 10.0 mi South 5.8 mph - N/A   Overcast
1:56 AM 55.9 °F 46.9 °F 72% 29.80 in 10.0 mi Variable 4.6 mph - N/A   Overcast
2:56 AM 55.9 °F 48.9 °F 77% 29.79 in 10.0 mi South 4.6 mph - N/A   Overcast
3:56 AM 55.9 °F 48.9 °F 77% 29.77 in 10.0 mi SSE 3.5 mph - N/A   Overcast
4:44 AM 55.4 °F 48.2 °F 77% 29.75 in 10.0 mi East 5.8 mph - N/A   Overcast
4:56 AM 57.0 °F 48.0 °F 72% 29.75 in 10.0 mi Calm Calm - N/A   Overcast
5:56 AM 57.0 °F 48.0 °F 72% 29.75 in 10.0 mi WSW 3.5 mph - N/A   Overcast
6:52 AM 57.2 °F 48.2 °F 72% 29.74 in 10.0 mi Calm Calm - 0.00 in   Overcast
6:56 AM 57.0 °F 46.9 °F 69% 29.74 in 10.0 mi Calm Calm - 0.00 in   Overcast
7:41 AM 55.4 °F 48.2 °F 77% 29.74 in 10.0 mi SSW 4.6 mph - 0.00 in   Overcast
7:48 AM 55.4 °F 50.0 °F 82% 29.74 in 7.0 mi SSW 5.8 mph - 0.00 in Rain Light Rain
7:56 AM 55.0 °F 51.1 °F 86% 29.74 in 3.0 mi SSW 5.8 mph - 0.00 in Rain Light Rain
8:56 AM 55.9 °F 50.0 °F 80% 29.74 in 10.0 mi West 6.9 mph - 0.00 in   Overcast
9:40 AM 55.4 °F 50.0 °F 82% 29.74 in 8.0 mi NW 8.1 mph - 0.00 in Rain Light Rain
9:56 AM 55.9 °F 51.1 °F 84% 29.74 in 9.0 mi West 8.1 mph - 0.00 in   Overcast
10:56 AM 60.1 °F 46.9 °F 62% 29.74 in 10.0 mi WNW 15.0 mph 20.7 mph N/A   Overcast
11:56 AM 59.0 °F 45.0 °F 60% 29.73 in 10.0 mi WNW 10.4 mph - 0.00 in   Overcast
12:03 PM 60.8 °F 44.6 °F 55% 29.73 in 10.0 mi WNW 13.8 mph - N/A   Overcast
12:56 PM 63.0 °F 44.1 °F 50% 29.70 in 10.0 mi WNW 13.8 mph - N/A   Overcast
1:56 PM 61.0 °F 41.0 °F 48% 29.69 in 10.0 mi West 9.2 mph - 0.00 in   Mostly Cloudy
2:56 PM 57.0 °F 48.0 °F 72% 29.69 in 7.0 mi SW 5.8 mph - 0.00 in Rain Light Rain
3:26 PM 57.2 °F 46.4 °F 67% 29.70 in 10.0 mi West 5.8 mph - 0.00 in   Overcast
3:34 PM 57.2 °F 44.6 °F 63% 29.70 in 10.0 mi WNW 4.6 mph - 0.00 in   Overcast
3:56 PM 57.9 °F 45.0 °F 62% 29.70 in 10.0 mi NW 5.8 mph - 0.00 in   Overcast
4:04 PM 57.2 °F 46.4 °F 67% 29.70 in 10.0 mi WNW 9.2 mph - N/A   Overcast
4:56 PM 55.9 °F 48.0 °F 75% 29.70 in 8.0 mi Calm Calm - 0.00 in   Overcast
5:56 PM 57.0 °F 46.0 °F 67% 29.70 in 10.0 mi SSW 3.5 mph - N/A   Scattered Clouds
6:56 PM 55.9 °F 46.0 °F 69% 29.73 in 10.0 mi Calm Calm - N/A   Partly Cloudy
7:56 PM 53.1 °F 45.0 °F 74% 29.74 in 10.0 mi Calm Calm - N/A   Clear
8:56 PM 50.0 °F 45.0 °F 83% 29.78 in 9.0 mi NW 3.5 mph - N/A   Clear
9:56 PM 51.1 °F 46.0 °F 83% 29.79 in 10.0 mi Calm Calm - N/A   Overcast
10:56 PM 50.0 °F 45.0 °F 83% 29.80 in 9.0 mi SSE 3.5 mph - N/A   Clear
11:56 PM 48.9 °F 44.1 °F 83% 29.81 in 10.0 mi ESE 3.5 mph - N/A   Clear